Regional Weather Roundup
Issued by NWS

Home | Current Version | Previous Version | Graphics & Text | Print | Product List | Glossary On
Versions: 1 2 3 4 5 6 7 8 9 10 11 12 13 14 15 16 17 18 19 20 21 22 23 24 25 26 27 28 29 30 31 32 33 34 35 36 37 38 39 40 41 42 43 44 45 46 47 48 49 50
000
ASUS43 KMKX 281321
RWRWI

WISCONSIN REGIONAL WEATHER ROUNDUP
NATIONAL WEATHER SERVICE MILWAUKEE/SULLIVAN WI
700 AM CST SUN DEC 28 2014

NOTE: "FAIR" INDICATES FEW OR NO CLOUDS BELOW 12,000 FEET WITH NO
SIGNIFICANT WEATHER AND/OR OBSTRUCTIONS TO VISIBILITY.

WIZ001-002-006>008-014>016-023>028-281400-
NORTHWEST WISCONSIN

CITY           SKY/WX    TMP DP  RH WIND       PRES   REMARKS
SUPERIOR ARPT  CLEAR     17  11  78 NW6       30.10R WCI   8
ASHLAND        CLOUDY    15  12  88 SW6       30.07R WCI   6
HAYWARD        CLOUDY    16  12  84 SW3       30.06R FOG
SIREN          FLURRIES  16  12  86 CALM      30.08R
CUMBERLAND     FLURRIES  12  10  92 CALM      30.06R
RICE LAKE      CLOUDY    14  10  86 CALM      30.09R
CHETEK         CLOUDY    12   9  88 CALM      30.08R
LADYSMITH      FLURRIES  11   9  90 S3        30.08R
EAU CLAIRE     CLEAR      9   6  88 SW3       30.09S
MENOMONIE      CLEAR      4   1  86 CALM      30.10S FOG
NEW RICHMOND   PTCLDY     9   7  91 SW3       30.09S
OSCEOLA        CLOUDY    11   9  90 S3        30.12R
$$

WIZ003>005-009-010-017-018-281400-
NORTH CENTRAL WISCONSIN

CITY           SKY/WX    TMP DP  RH WIND       PRES   REMARKS
MANITOWISH WTR FLURRIES  12  10  91 W3        29.99R
ARBOR VITAE    FLURRIES  14  11  89 W3        29.99S
WOODRUFF       FLURRIES  14  11  89 W3        29.99S
RHINELANDER    MOCLDY     3   1  91 W5        30.00S WCI  -6
EAGLE RIVER    CLOUDY    11   8  85 CALM      29.99R
LAND O LAKES   FLURRIES  14  11  89 W6        29.98S WCI   5
PHILLIPS       FLURRIES  10   8  90 SW5       30.02S WCI   2
TOMAHAWK       CLOUDY     5   2  88 CALM      30.03S
MEDFORD        CLOUDY    10   8  92 CALM      30.04S FOG
MERRILL        FLURRIES  10   8  92 W6        30.05S WCI   1
$$

WIZ029-030-035-036-043>047-281400-
CENTRAL WISCONSIN

CITY           SKY/WX    TMP DP  RH WIND       PRES   REMARKS
WAUSAU         CLOUDY    11   8  88 W3        30.05S
MOSINEE        CLOUDY    10  10 100 W6        30.07S WCI   1
MARSHFIELD     CLOUDY    12   8  84 W3        30.07S
STEVENS POINT  CLOUDY    12  10  89 W3        30.09F
WAUPACA        CLEAR     17  12  82 W5        30.11R WCI  10
WAUTOMA        CLEAR     15  12  88 W5        30.11F WCI   8
WISC RAPIDS    MOCLDY    12   8  84 W5        30.11S WCI   4
CAMP DOUGLAS   CLEAR     11  11  99 S2        30.11S
$$

WIZ011>013-019>022-031-037>040-048>050-281400-
NORTHEAST WISCONSIN

CITY           SKY/WX    TMP DP  RH WIND       PRES   REMARKS
ANTIGO         CLOUDY     9   7  92 W5        30.02S WCI   0
SHAWANO        PTCLDY    16  11  80 W7        30.09S WCI   7
OCONTO         CLEAR     17  13  85 W7        30.09R WCI   7
STURGEON BAY   CLEAR     19  12  73 W7        30.08S WCI  10
GREEN BAY      CLEAR     21  16  81 W9        30.09S WCI  11
MANITOWOC      CLEAR     22  18  85 W8        30.09S WCI  12
APPLETON       CLEAR     18  12  79 W9        30.09R WCI   6
CLINTONVILLE   CLEAR     16  10  79 W7        30.10R WCI   6
OSHKOSH        CLEAR     19  12  74 W8        30.10R WCI   9
$$

WIZ032>034-041-042-053>061-281400-
SOUTHWEST WISCONSIN

CITY           SKY/WX    TMP DP  RH WIND       PRES   REMARKS
LA CROSSE      CLEAR     14   9  80 S8        30.14S WCI   3
SPARTA         CLEAR     10   8  89 CALM      30.13S
VIROQUA        CLEAR     13  13 100 SW5       30.09S WCI   5
BOSCOBEL       CLEAR     16  12  84 CALM      30.15F
PRAIRIE DU CHI CLEAR     16  12  84 CALM      30.16S
PLATTEVILLE    CLEAR     15  13  92 CALM      30.14F
$$

WIZ056-057-062-063-064-067-068-281400-
SOUTH CENTRAL WISCONSIN

CITY           SKY/WX    TMP DP  RH WIND       PRES   REMARKS
REEDSBURG      CLEAR     15  11  83 W5        30.12S WCI   8
BARABOO/DELLS  CLEAR     15  11  83 W3        30.11S
LONE ROCK      CLEAR     20  11  68 CALM      30.15S
MINERAL POINT  CLEAR     18  16  93 W6        30.11F WCI   9
MADISON        FAIR      18  11  74 W3        30.12S
MIDDLETON      FAIR      18  12  78 W6        30.12F WCI  10
WATERTOWN      CLEAR     19  14  81 SW5       30.11F WCI  12
MONROE         CLEAR     18  16  93 W3        30.12F
JANESVILLE     CLEAR     19  14  79 W6        30.14S WCI  11
$$

WIZ051-052-058>065-066-070>072-281400-
SOUTHEAST WISCONSIN

CITY           SKY/WX    TMP DP  RH WIND       PRES   REMARKS
MILWAUKEE      PTCLDY    23  15  71 W5        30.12S WCI  17
WAUKESHA       CLEAR     18  12  79 W5        30.12S WCI  11
MILWAUKEE/TIMM CLEAR     21  14  73 SW6       30.12R WCI  14
RACINE         CLEAR     22  17  81 W3        30.14S
BURLINGTON     CLEAR     18  15  89 W3        30.12F
KENOSHA        CLEAR     22  18  85 W7        30.12F WCI  13
FOND DU LAC    CLEAR     19  13  77 SW3       30.11R
SHEBOYGAN      CLEAR     21  15  78 W12       30.09S WCI   9
WEST BEND      CLEAR     21  14  73 W6        30.09F WCI  14
JUNEAU         CLEAR     17  13  86 SW7       30.12S WCI   7
$$

LSZ147-162-281400-
LAKE SUPERIOR

STATION/POSITION TIME  TEMP    WIND        PRES    WAVE
                       AIR SEA DIR/SP/G            HT/PER
                 (UTC) (F)     (DEG/KT/KT) (MB)    (FT/S)
DEVILS ISLAND    1300   19     300/ 16/ 19 1019.2R
PORT WING        1240   22     300/ 13/ 16 1018.6R
SAXON HARBOR     1200   19     220/  4/  8 1017.6R
$$

LMZ867-665-643>646-281400-
LAKE MICHIGAN

STATION/POSITION TIME  TEMP    WIND        PRES    WAVE
                       AIR SEA DIR/SP/G            HT/PER
                 (UTC) (F)     (DEG/KT/KT) (MB)    (FT/S)
CHAMBERS ISLAND  1200   20     230/  6/ 11 1017.9R
NORTHPORT PIER   1303   21     270/  4/ 13 1017.6R
SISTER BAY       1113          290/ 15/ 18   N/A
ALGOMA LAKESHORE 1245          320/  8/ 13   N/A
KEWAUNEE LAKESHO 1300   22     280/  8/ 15 1017.5R
SHEBOYGAN LAKESH 1300   23 37  260/ 12/ 14 1019.9S
PORT WASHINGTON  1200   24     270/  6/ 10 1020.3R
MILWAUKEE LAKESH 1300   24     270/  6/  8   N/A
KENOSHA   LAKESH 1300   24     270/  6/ 10 1020.0F
$$

TC  - TEMPERATURE IN CELSIUS
VSB - VISIBILITY IN STATUTE MILES
WCI - WIND CHILL INDEX
HX  - HEAT INDEX



USA.gov is the U.S. government's official web portal to all federal, state and local government web resources and services.